www.pogodaiklimat.ru

Погода и климат >> Архив погоды >> Россия >> Приморский край >> Ольга


ПОГОДА в Ольге

  • Прогноз погоды в Ольге
  • Монитор погоды в Ольге

АРХИВ ПОГОДЫ в Ольге

Время (UTC), дата Ветер
(напр.,м/с)
 
Видим.   Явления Облачность Т
(С)
Тd
(С)
f
(%)
Тe
(С)
Тes
(С)
Комфортность P
(гПа)
Po
(гПа)
Тmin
(С)
Tmax
(С)
R
(мм)
R24
(мм)
S
(см)
12 17.03 СВ 1 10 км ясно -4.7 -6.7 86 -7 -7 1017.3 1014.7
15 17.03 СВ 1 10 км 2 балла -8.1 -9.3 91 -11 -11 1017.3 1014.7
18 17.03 СВ 1 10 км 10 баллов -8.2 -9.3 92 -11 -11 1017.3 1014.7
21 17.03 СВ 1 20 км 9/0
[Ac trans Ci fib]
-8.7 -9.9 91 -11 -11 1015.0 1012.5 -8.9
00 18.03 Ю 1 50 км 8/0
[Ac trans Ci fib]
0.0 -7.4 57 -1 +4 1013.4 1011.0
03 18.03 Ю 4 50 км 10 баллов +9.2 -2.4 44 +7 +7 1010.4 1008.0
06 18.03 Ю 5-12
{12}
50 км 3/0
[Ci fib]
+8.7 -1.3 49 +6 +9 1005.2 1002.9
09 18.03 Ю 2
{12}
50 км 1/0
[Ci fib]
+6.6 -3.1 50 +5 +5 1004.8 1002.4 +10.4
12 18.03 С 2 10 км ясно +1.5 -2.3 76 -2 -2 1007.8 1005.3
15 18.03 штиль 0 10 км ясно -3.3 -4.4 92 -4 -4 1007.8 1005.3
18 18.03 штиль 0 10 км ясно -5.1 -6.1 93 -6 -6 1007.9 1005.3
21 18.03 штиль 0 20 км 3/0
[Ci fib]
-6.6 -7.6 93 -8 -8 1008.3 1005.8 -6.6
00 19.03 З 2 50 км 10/0
[Ac trans Cs]
+3.4 -3.7 60 +1 +5 1010.4 1008.0
03 19.03 Ю 2 50 км 7 баллов +14.9 -5.5 24 +15 +18 1010.4 1008.0
06 19.03 Ю 4 50 км ясно +15.2 -7.0 21 +14 +18 1010.4 1008.0
09 19.03 В 1 50 км 3/0
[Ci sp]
+8.0 -5.5 38 +8 +8 1011.8 1009.3 +17.4
12 19.03 СВ 1 10 км ясно +0.6 -5.6 63 -1 -1 1013.2 1010.7
15 19.03 СВ 1 10 км 7 баллов +0.3 -1.9 85 -2 -2 1014.5 1012.0
18 19.03 СВ 1 4000 м дымка 10 баллов -0.1 -1.5 90 -2 -2 1015.8 1013.3
21 19.03 штиль 0 4000 м дымка 10/10 300 м
[St]
-0.3 -2.1 88 -2 -2 1012.9 1010.4 -1.6
00 20.03 С 1 20 км 10/10 300 м
[St]
+1.0 -1.8 82 -1 -1 1010.8 1008.4
03 20.03 Ю 2 20 км 10 баллов +5.5 -1.4 61 +3 +3 1009.2 1006.7
06 20.03 Ю 2 50 км 10 баллов +5.2 -0.6 66 +3 +3 1007.8 1005.3
09 20.03 СВ 1 20 км 10/0
[As trans]
+2.3 -0.5 82 +1 +1 1009.2 1006.7 +6.0
12 20.03 СВ 6-11
{15}
4000 м дымка 10/5 300 м
[St As op]
+2.3 -0.0 85 -4 -4 1012.5 1010.1
15 20.03 СВ 5
{13}
4000 м дымка 10/5 300 м
[St As op]
+0.3 -2.1 84 -6 -6 1015.0 1012.6
18 20.03 СВ 7-12
{12}
4000 м дымка 10/10 300 м
[St]
-1.0 -3.2 85 -8 -8 1012.7 1010.2
21 20.03 СВ 6
{16}
4000 м слаб. снег 10/10 300 м
[Frnb Ns]
-1.4 -3.6 85 -8 -8 1011.0 1008.6 -1.6 0.3 <0.5
00 21.03 СВ 5
{11}
4000 м слаб. снег 10/10 300 м
[Frnb Ns]
-2.1 -3.7 89 -9 -9 1008.9 1006.4 -2.1
03 21.03 СВ 6-11
{13}
4000 м слаб. снег 10/10 300 м
[Frnb Ns]
-2.0 -5.0 80 -9 -9 1005.1 1002.7
06 21.03 С 5-10
{12}
4000 м слаб. снег {метель} 10/10 300 м
[Frnb Ns]
-2.6 -4.7 85 -9 -9 1001.6 999.2
09 21.03 С 4
{14}
4000 м слаб. снег {метель} 10/10 300 м
[Frnb Ns]
-2.6 -5.4 81 -9 -9 1001.2 998.7 -1.4 4
12 21.03 С 2
{11}
4000 м слаб. снег {метель} 10/10 300 м
[Frnb Ns]
-3.0 -5.4 83 -7 -7 1001.5 999.1
15 21.03 ЮЗ 1 4000 м слаб. снег 10 баллов -3.5 -4.3 94 -6 -6 1005.2 1002.7
18 21.03 З 2 4000 м слаб. снег 10 баллов -3.0 -6.5 77 -7 -7 1006.5 1004.0
21 21.03 З 2 4000 м {снег, метель} 10/6 300 м
[St As op]
-3.1 -11.8 51 -7 -7 1007.2 1004.8 -3.6 2 4
00 22.03 СЗ 3 50 км {снег, метель} 10/0
[As trans]
-1.7 -13.3 41 -6 -4 1010.2 1007.7
03 22.03 СЗ 5 50 км 1 балл +0.8 -13.3 34 -4 +2 1010.5 1008.0
06 22.03 С 4 50 км 5 баллов +0.4 -12.9 36 -4 -2 1011.8 1009.3
09 22.03 СЗ 2 50 км 4 балла -1.1 -13.9 37 -4 -4 1013.2 1010.7 +1.9
12 22.03 СЗ 2 10 км 1/1 1000 м
[Sc]
-3.0 -14.4 41 -6 -6 1017.3 1014.7
15 22.03 штиль 0 10 км 10 баллов -6.5 -13.4 58 -7 -7 1017.3 1014.7
18 22.03 СВ 1 10 км 10 баллов -9.8 -12.3 82 -12 -12 1017.3 1014.7
21 22.03 штиль 0 50 км 10/0
[As trans]
-9.6 -11.9 83 -10 -10 1015.0 1012.5 -10.1 1
00 23.03 З 2 50 км 3/0
[Ci fib]
-0.6 -16.4 29 -3 +3 1014.3 1011.9
03 23.03 Ю 4 50 км 9 баллов +1.2 -13.7 32 -3 -2 1013.2 1010.7
06 23.03 СВ 1 4000 м слаб. ливневой снег 10 баллов 0.0 -9.7 48 -1 -1 1010.5 1008.0
09 23.03 З 1 50 км {ливн. осадки} 6/1 1000 м
[Sc diur, vesp Ac trans Ci fib]
-0.2 -9.4 50 -2 -2 1009.2 1006.7 +1.7 0.1
12 23.03 З 4-10
{10}
10 км {ливн. осадки} 3/1 1000 м
[Sc Ci fib]
-2.7 -16.8 33 -8 -8 1010.9 1008.4
15 23.03 СЗ 3 10 км ясно -5.0 -17.4 37 -10 -10 1013.3 1010.7
18 23.03 З 1 10 км ясно -6.0 -16.3 44 -8 -8 1013.3 1010.7
21 23.03 СВ 2 50 км ясно -12.6 -15.5 79 -17 -17 1013.2 1010.6 -12.8 0.0 <0.5
00 24.03 ЮЗ 1 50 км 1/0
[Ci fib]
-2.7 -14.0 41 -4 +4 1012.9 1010.5 -13.3
03 24.03 Ю 4 50 км 4 балла +0.9 -12.5 36 -3 +2 1011.8 1009.3
06 24.03 Ю 5-10
{10}
50 км 1/0
[Ci fib]
+3.7 -9.4 38 -1 +3 1007.5 1005.1

 

Местоположение метеостанции Ольга (Приморский край, Россия): широта 43.75 долгота 135.30 высота над уровнем моря 20 м.

В архиве по умолчанию представлена погода в Ольге за последнюю неделю. Архивные данные за месяц целиком и за предыдущие месяцы, начиная с января 2011 года, Вы можете получить, выбрав интересующий диапазон дат из раскрывающегося списка и нажав кнопку "Ввод!".


*Определитесь, кто Вы:
робот инопланетянин человек

Внимание! Время в таблицах - всемирное. Для получения местного времени необходимо прибавить поправку, которая равна 10 ч.

Смотрите также архив погоды в соседних городах и на ближайших метеорологических станциях:

Погода в Дальнегорске (Приморский край, Россия) (31 км)
Погода в Богополе (Приморский край, Россия) (56 км)
Погода в Кавалерово (Приморский край, Россия) (61 км)
Погода в Рудной Пристани (Приморский край, Россия) (80 км)
Погода в Лучегорске (Приморский край, Россия) (81 км)
Погода в Лазо (Приморский край, Россия) (127 км)
Погода в Чугуевке (Приморский край, Россия) (128 км)
Погода в Преображении (Приморский край, Россия) (148 км)
Погода в Тернее (Приморский край, Россия) (173 км)
Погода в Анучино (Приморский край, Россия) (186 км)

Пояснения к столбцам:

Ветер - указаны скорость ветра в м/с - средняя за 10 мин, порывы в срок и между сроками (в фигурных скобках) и направление, откуда дует ветер: С - северный, СВ - северо-восточный, В - восточный, ЮВ - юго-восточный, Ю - южный, ЮЗ - юго-западный, З - западный, СЗ - северо-западный.
Видимость - горизонтальная дальность видимости в метрах или километрах. При видимости от 1 до 10 км при отсутствии осадков обычно наблюдается дымка, при ухудшении видимости до 1 км и менее - туман. В сухую погоду видимость может ухудшаться дымом, пылью или мглою.
Явления - указаны атмосферные явления, наблюдавшиеся в срок или в последний час перед сроком; фигурными скобками обозначены явления, наблюдавшиеся между сроками (за 1-3 часа до срока); квадратными скобками обозначены град или гололедные отложения с указанием их диаметра в мм.
Облачность - указаны через наклонную черту общая и нижняя облачность в баллах и высота нижней границы облаков в метрах; квадратными скобками обозначены формы облаков: Ci - перистые, Cs - перисто-слоистые, Cc - перисто-кучевые, Ac - высококучевые, As - высокослоистые, Sc - слоисто-кучевые, Ns - слоисто-дождевые, Cu - кучевые, Cb - кучево-дождевые. Подробнее классификацию облаков см. в Атласе облаков (PDF).
T - Температура воздуха - температура, измеренная на высоте 2 м над землей.
Td - Температура точки росы - температура, при понижении до которой содержащийся в воздухе водяной пар достигнет насыщения.
f - Относительная влажность воздуха - влажноcть воздуха, измеренная на высоте 2 м над землей.
Te - Эффективная температура - температура, которую ощущает одетый по сезону человек в тени. Характеристика душности погоды. При расчете учитывается влияние влажности воздуха и скорости ветра на теплоощущения человека.
Tes - Эффективная температура на солнце - температура, которую ощущает человек, с поправкой на солнечный нагрев. Характеристика знойности погоды. Зависит от высоты солнца над горизонтом, облачности и скорости ветра. Ночью, в пасмурную погоду, а также при ветре 12 м/с и более поправка равна нулю.
P - Атмосферное давление - приведенное к уровню моря атмосферное давление.
Po - Атмосферное давление - измеренное на уровне метеостанции атмосферное давление.
Tmin - Минимальная температура - минимум температуры воздуха на высоте 2 м над землей.
Tmax - Максимальная температура - максимум температуры воздуха на высоте 2 м над землей.
R - Количество осадков - Количество выпавших осадков за период времени, мм. При наведении курсора мыши на число - период времени, за который выпало указанное количество осадков.
R24 - Количество осадков - Количество выпавших осадков за 24 часа, мм.
S - Снежный покров - Высота снежного покрова, см. При наведении курсора мыши на число - состояние снежного покрова и степень покрытия местности в баллах.